Regional Weather Roundup
Issued by NWS

Home | Current Version | Previous Version | Text Only | Print | Product List | Glossary Off
Versions: 1 2 3 4 5 6 7 8 9 10 11 12 13 14 15 16 17 18 19 20 21 22 23 24 25 26 27 28 29 30 31 32 33 34 35 36 37 38 39 40 41 42 43 44 45 46 47 48 49 50

000
ASUS43 KBIS 171110
RWRND

NORTH DAKOTA REGIONAL WEATHER ROUNDUP
NATIONAL WEATHER SERVICE BISMARCK ND
500 AM CST TUE JAN 17 2017

NOTE: "FAIR" INDICATES FEW OR NO CLOUDS BELOW 12,000 FEET WITH NO
SIGNIFICANT WEATHER AND/OR OBSTRUCTIONS TO VISIBILITY.


NDZ001>003-009>011-017-171200-
NORTHWEST NORTH DAKOTA

CITY           SKY/WX    TMP DP  RH WIND       PRES   REMARKS
WILLISTON      FAIR       6   2  83 SW8       29.88F WCI  -7
MINOT          FAIR      19  14  81 SW14      29.87F WCI   6
$$

NDZ018>021-031>035-040>046-171200-
SOUTHWEST NORTH DAKOTA

CITY           SKY/WX    TMP DP  RH WIND       PRES   REMARKS
BISMARCK       FAIR       0  -5  79 CALM      29.99F HAZE
DICKINSON      FAIR      16   7  67 SW7       29.90F WCI   6
GARRISON         N/A      6   3  87 CALM      29.92F
HETTINGER ARPT CLOUDY     3  -1  83 W3        29.96F
$$

NDZ004>008-012>016-024-026-027-054-171200-
NORTHEAST NORTH DAKOTA

CITY           SKY/WX    TMP DP  RH WIND       PRES   REMARKS
GRAND FORKS    CLOUDY     1  -3  83 SW7       29.97F WCI -12
GRND FRKS AFB  CLOUDY     6   2  84 W5        29.96F WCI  -3
DEVILS LAKE    FAIR       8   5  87 W8        29.94F WCI  -4
$$

NDZ022-023-025-028>030-036>039-047>053-171200-
SOUTHEAST NORTH DAKOTA

CITY           SKY/WX    TMP DP  RH WIND       PRES   REMARKS
FARGO          CLOUDY     3   0  87 S6        29.99F WCI  -8
JAMESTOWN      FAIR       9   6  88 W7        29.97S WCI  -2
$$





USA.gov is the U.S. government's official web portal to all federal, state and local government web resources and services.